www.pogodaiklimat.ru

Погода и климат >> Архив погоды >> Канада >> Онтарио >> Тандер-Бэй аэропорт


ПОГОДА в Тандер-Бэй аэропорту

  • Прогноз погоды в Тандер-Бэй аэропорту
  • Монитор погоды в Тандер-Бэй аэропорту

АРХИВ ПОГОДЫ в Тандер-Бэй аэропорту

Время (UTC), дата Ветер
(напр.,м/с)
 
Видим.   Явления Облачность Т
(С)
Тd
(С)
f
(%)
Тe
(С)
Тes
(С)
Комфортность P
(гПа)
Po
(гПа)
Тmin
(С)
Tmax
(С)
R
(мм)
R24
(мм)
S
(см)
15 12.01 СВ 3 16 км слаб. снег 10/10 1000 м
[]
-12.1 -14.7 81 -18 -18 1038.7 1012.8
18 12.01 В 6 16 км слаб. снег 10/10 300 м
[]
-9.4 -11.6 84 -18 -18 1038.3 1012.4 -12.6 -9.4
21 12.01 СВ 4 16 км слаб. снег 10/10 300 м
[]
-8.7 -10.6 86 -16 -16 1037.2 1011.3
00 13.01 СВ 5 16 км слаб. снег 10/10 300 м
[]
-8.7 -10.3 88 -16 -16 1037.4 1011.5 -12.6 -8.5
03 13.01 СВ 4 16 км слаб. снег 10/10 600 м
[]
-9.1 -10.7 88 -16 -16 1037.0 1011.1
06 13.01 СВ 2 16 км слаб. снег 10/10 600 м
[]
-7.3 -8.8 89 -12 -12 1034.9 1009.2 -12.6 -7.3
09 13.01 СЗ 2 16 км 10/10 300 м
[]
-7.0 -8.1 92 -11 -11 1033.8 1008.1
12 13.01 ЮЗ 2 16 км 10/10 300 м
[]
-7.4 -8.2 94 -11 -11 1032.1 1006.5 -9.3 -7.3
15 13.01 ЮЗ 1 16 км 10/10 1000 м
[]
-7.5 -8.2 95 -8 -8 1030.5 1004.9
18 13.01 СЗ 1 16 км 10/10 300 м
[]
-3.6 -5.5 87 -6 -6 1027.5 1002.1 -9.5 -3.6
21 13.01 ЮЗ 5 16 км 10/10 600 м
[]
0.0 -3.2 79 -6 -6 1024.9 999.7
00 14.01 ЮЗ 6 16 км 10/10 600 м
[]
-0.4 -3.2 81 -7 -7 1023.9 998.7 -7.9 +0.1
03 14.01 ЮЗ 4 16 км 10/10 300 м
[]
-0.8 -2.8 86 -6 -6 1022.9 997.7
06 14.01 З 4 9000 м дымка 10/10 300 м
[]
-1.1 -3.2 86 -7 -7 1022.0 996.9 -7.9 +0.1 23
09 14.01 З 4 11 км 10/10 300 м
[]
-2.0 -4.6 82 -8 -8 1022.3 997.3
12 14.01 З 4 14 км 10/10 300 м
[]
-2.5 -4.5 86 -8 -8 1022.0 997.0 -2.6 +0.1
15 14.01 СЗ 2 16 км 10/10 300 м
[]
-2.5 -4.7 85 -7 -7 1022.7 997.6
18 14.01 СЗ 4 16 км 10/10 300 м
[]
-2.1 -5.4 78 -8 -8 1022.4 997.4 -3.5 -1.1
21 14.01 С 6 16 км 10/10 600 м
[]
-3.1 -7.7 71 -10 -10 1023.0 997.9
00 15.01 СЗ 2 16 км 10/10 600 м
[]
-5.7 -10.0 72 -10 -10 1024.7 999.5 -5.8 -1.4
03 15.01 С 2 16 км 5/5 600 м
[]
-8.1 -11.4 77 -13 -13 1024.5 999.2
06 15.01 Ю 1 16 км 9/9 600 м
[]
-10.0 -12.4 83 -10 -10 1023.2 997.9 -10.9 -1.1
09 15.01 З 2 16 км 10/10 600 м
[]
-13.9 -15.1 91 -18 -18 1021.2 995.8
12 15.01 СЗ 2 16 км 10/10 600 м
[]
-11.5 -12.7 91 -15 -15 1017.2 991.9 -14.2 -1.1
15 15.01 СВ 1 16 км 10/10 300 м
[]
-9.8 -11.4 88 -12 -12 1012.3 987.1
18 15.01 ЮЗ 7 16 км 10/10 1500 м
[]
-1.9 -5.1 79 -9 -9 1006.4 981.5 -14.2 -1.8
21 15.01 З 8 16 км 10/10 600 м
[]
-3.5 -7.2 76 -12 -12 1006.2 981.2
00 16.01 З 7 16 км 10/10 600 м
[]
-3.6 -7.3 75 -12 -12 1008.4 983.4 -14.2 -1.7
03 16.01 СЗ 6 16 км ясно -14.5 -19.4 66 -24 -24 1017.8 992.3
06 16.01 СЗ 7 16 км ясно -16.6 -21.4 66 -27 -27 1022.0 996.5 -16.7 -1.7 11
09 16.01 СЗ 5 16 км ясно -19.2 -23.6 68 -29 -29 1026.4 1000.7
12 16.01 СЗ 5 16 км ясно -21.6 -25.3 72 -32 -32 опасность
обморожения
1028.0 1002.2 -21.6 -1.7
15 16.01 З 3 16 км 3/0
[]
-22.1 -27.2 63 -30 -30 1030.4 1004.2
18 16.01 СЗ 4 16 км ясно -18.6 -26.2 51 -27 -25 1029.9 1003.7 -23.2 -16.6
21 16.01 З 3 16 км ясно -15.5 -24.0 48 -22 -22 1028.8 1002.7
00 17.01 З 1 16 км ясно -20.7 -23.8 76 -24 -24 1029.3 1002.9 -23.2 -15.1
03 17.01 СЗ 3 16 км 10/0
[]
-19.5 -23.4 71 -26 -26 1028.3 1002.0
06 17.01 ЮЗ 2 16 км 10/0
[]
-19.1 -22.3 76 -25 -25 1027.3 1001.1 -23.6 -15.1 7
09 17.01 ЮЗ 2 16 км 10/0
[]
-18.2 -21.3 77 -24 -24 1026.4 1000.4
12 17.01 З 2 16 км 10/10 600 м
[]
-17.2 -20.6 75 -22 -22 1024.2 998.1 -23.6 -15.1
15 17.01 З 2 16 км 10/0
[]
-16.1 -20.4 69 -21 -21 1022.7 996.7
18 17.01 З 4 16 км 10/0 2000 м
[]
-14.0 -19.3 64 -22 -21 1021.0 995.1 -23.6 -13.9
21 17.01 З 5 16 км 10/0
[]
-10.8 -17.4 58 -18 -18 1018.7 993.0
00 18.01 З 3 16 км ясно -14.6 -18.8 70 -21 -21 1019.4 993.6 -19.4 -10.5
03 18.01 З 4 16 км ясно -16.0 -19.8 72 -24 -24 1019.9 994.1
06 18.01 З 5 16 км ясно -17.4 -21.5 70 -27 -27 1020.6 994.8 -19.4 -10.5 6
09 18.01 З 5 16 км ясно -19.7 -23.8 70 -29 -29 1022.2 996.4
12 18.01 СЗ 3 16 км ясно -23.6 -28.5 64 -32 -32 опасность
обморожения
1026.1 999.9 -23.6 -10.5
15 18.01 СЗ 4 16 км ясно -25.4 -31.2 58 -36 -35 опасность
обморожения
1030.3 1003.9
18 18.01 СЗ 6 16 км ясно -22.4 -31.0 45 -34 -32 опасность
обморожения
1030.6 1004.3 -26.2 -17.4
21 18.01 СЗ 4 16 км ясно -20.8 -30.0 43 -29 -29 1032.3 1005.9
00 19.01 СЗ 2 16 км ясно -24.3 -29.8 60 -30 -30 1033.5 1006.8 -26.2 -20.6
03 19.01 З 3 16 км ясно -28.7 -32.3 71 -37 -37 опасность
обморожения
1035.3 1008.4
06 19.01 З 2 16 км ясно -30.3 -33.6 73 -38 -38 опасность
обморожения
1035.8 1008.9 -31.2 -17.4 18
09 19.01 З 2 16 км 3/0
[]
-30.0 -33.5 71 -38 -38 опасность
обморожения
1035.5 1008.7
12 19.01 З 3 16 км 9/0
[]
-34.3 -37.6 72 -44 -44 опасность
обморожения
1034.9 1007.8 -34.4 -17.4

 

Местоположение метеостанции Тандер-Бэй аэропорт (Онтарио, Канада): широта 48.37 долгота -89.32 высота над уровнем моря 199 м.

В архиве по умолчанию представлена погода в Тандер-Бэй аэропорту за последнюю неделю. Архивные данные за месяц целиком и за предыдущие месяцы, начиная с января 2011 года, Вы можете получить, выбрав интересующий диапазон дат из раскрывающегося списка и нажав кнопку "Ввод!".


*Определитесь, кто Вы:
робот инопланетянин человек

Внимание! Время в таблицах - всемирное. Для получения местного времени необходимо прибавить поправку, которая равна -8 ч.

Смотрите также архив погоды в соседних городах и на ближайших метеорологических станциях:

Погода в Тандер-Бэе (Онтарио, Канада) (1 км)
Погода на Острове Уэлком (Онтарио, Канада) (16 км)
Погода в Иглшеме (Альберта, Канада) (35 км)
Погода в Упсала (Онтарио, Канада) (111 км)
Погода в Камерон Фоллс (Онтарио, Канада) (113 км)
Погода на Острове Кататота (Онтарио, Канада) (167 км)
Погода в Атикокане (Онтарио, Канада) (176 км)
Погода в Армстронге (Онтарио, Канада) (216 км)
Погода в Пекаскве (Онтарио, Канада) (224 км)
Погода в Джералдтоне (Онтарио, Канада) (234 км)

Пояснения к столбцам:

Ветер - указаны скорость ветра в м/с - средняя за 10 мин, порывы в срок и между сроками (в фигурных скобках) и направление, откуда дует ветер: С - северный, СВ - северо-восточный, В - восточный, ЮВ - юго-восточный, Ю - южный, ЮЗ - юго-западный, З - западный, СЗ - северо-западный.
Видимость - горизонтальная дальность видимости в метрах или километрах. При видимости от 1 до 10 км при отсутствии осадков обычно наблюдается дымка, при ухудшении видимости до 1 км и менее - туман. В сухую погоду видимость может ухудшаться дымом, пылью или мглою.
Явления - указаны атмосферные явления, наблюдавшиеся в срок или в последний час перед сроком; фигурными скобками обозначены явления, наблюдавшиеся между сроками (за 1-3 часа до срока); квадратными скобками обозначены град или гололедные отложения с указанием их диаметра в мм.
Облачность - указаны через наклонную черту общая и нижняя облачность в баллах и высота нижней границы облаков в метрах; квадратными скобками обозначены формы облаков: Ci - перистые, Cs - перисто-слоистые, Cc - перисто-кучевые, Ac - высококучевые, As - высокослоистые, Sc - слоисто-кучевые, Ns - слоисто-дождевые, Cu - кучевые, Cb - кучево-дождевые. Подробнее классификацию облаков см. в Атласе облаков (PDF).
T - Температура воздуха - температура, измеренная на высоте 2 м над землей.
Td - Температура точки росы - температура, при понижении до которой содержащийся в воздухе водяной пар достигнет насыщения.
f - Относительная влажность воздуха - влажноcть воздуха, измеренная на высоте 2 м над землей.
Te - Эффективная температура - температура, которую ощущает одетый по сезону человек в тени. Характеристика душности погоды. При расчете учитывается влияние влажности воздуха и скорости ветра на теплоощущения человека.
Tes - Эффективная температура на солнце - температура, которую ощущает человек, с поправкой на солнечный нагрев. Характеристика знойности погоды. Зависит от высоты солнца над горизонтом, облачности и скорости ветра. Ночью, в пасмурную погоду, а также при ветре 12 м/с и более поправка равна нулю.
P - Атмосферное давление - приведенное к уровню моря атмосферное давление.
Po - Атмосферное давление - измеренное на уровне метеостанции атмосферное давление.
Tmin - Минимальная температура - минимум температуры воздуха на высоте 2 м над землей.
Tmax - Максимальная температура - максимум температуры воздуха на высоте 2 м над землей.
R - Количество осадков - Количество выпавших осадков за период времени, мм. При наведении курсора мыши на число - период времени, за который выпало указанное количество осадков.
R24 - Количество осадков - Количество выпавших осадков за 24 часа, мм.
S - Снежный покров - Высота снежного покрова, см. При наведении курсора мыши на число - состояние снежного покрова и степень покрытия местности в баллах.